STARLINK-30201, 57301

Orbit data source: Space-Track

STARLINK-30201, 57301 is a payload satellite owned by SpaceX/Seattle (US) in LEO that was launched on Mon, 10 Jul 2023 UTC via an FALCON 9 launch vehicle from the Air Force Eastern Test Range (AFETR). Payload-class satellites include a variety of spacecraft equipped with specific instruments for various scientific and technological missions. These include communications satellites like Starlink; space stations such as the ISS; scientific satellites like the Hubble; Earth observation satellites from companies like Planet Labs, Umbra, and HawkEye 360; GPS; miniature CubeSats for education and research; and military/defense satellites.

Loading next visibility...
Identifier
57301, 2023-096M
Orbit
LEO
Country
Flag of USUS
Related business
Manufacturer
SpaceX/Seattle
Mission
Operational Commercial Communications
Bus & Motor
STARLINK V2M, Unknown motor
Mass
730 kg wet, ~700 kg dry
Launch date (UTC)
2023-07-10 (3 years ago)
Launch vehicle
FALCON 9
Launch site
Air Force Eastern Test Range (AFETR)
Object type
Payload
Rocket body
Debris
Shape & HBR
Box + 2 Pan, 17.7 m
Radar Cross Section
33.884 m², Large (>1 m²)

Expand to show TLE details & history
Last TLE update: 1 day ago

TLE from 1 day ago
0 STARLINK-30201
1 57301U 23096M   26235.74151589  .00001150  00000-0  51312-4 0  9997
2 57301  43.0059 359.9360 0001351 261.9737  98.0962 15.27584207172262
Epoch: 2026-08-23T17:47Z
TLE epoch observation values (Epoch: 2026-08-23T17:47:46.972Z)
Latitude
-0°
Longitude
120.95707°
Altitude
482.943 km
Speed
7.626 km/s
True Right ascension
23h 59m 44s
True Declination
0° 00' 00"
Sunlit
Object was in full shadow at epoch
Visualization orbit readout
Latitude
Unknown
Longitude
Unknown
Altitude
Unknown
Speed
Unknown
Apparent Right ascension
Unknown
Apparent Declination
Unknown
Sunlit
N/A
Visualization observer readout
Local Sidereal Time
11:43:12
Azimuth
Unknown
Elevation
Unknown
Doppler factor
Unknown
Orbital elements
Apogee altitude
485.908 km
Perigee altitude
484.053 km
Semi-major axis
6,863.118 km
Eccentricity
0.00014
Inclination
43.0059°
RAAN
359.936°
Arg. of periapsis
261.9737°
True anomaly
98.11153°
Mean anomaly
98.0962°
Eccentric anomaly
98.10386°
Mean motion
3.81734 °/min
Orbital period
94.31 mins
BSTAR
0.000051312
Loading maneuver chart data...
Computing Atmospheric mass density...

Documentation

Showing up to 5 results
|